Time,TemperatureF,DewpointF,PressureIn,WindDirection,WindDirectionDegrees,WindSpeedMPH,WindSpeedGustMPH,Humidity,HourlyPrecipIn,Conditions,Clouds,dailyrainin,SoftwareType,DateUTC
2013-03-04 00:10:00,39.4,36.0,30.15,WSW,257,0.0,0.0,88,0.00,,,0.00,weatherlink.com 1.10,2013-03-04 06:10:00,
2013-03-04 00:25:00,39.4,37.0,30.15,WSW,257,0.0,0.0,89,0.00,,,0.00,weatherlink.com 1.10,2013-03-04 06:25:00,
2013-03-04 00:40:00,39.3,36.0,30.15,WSW,257,0.0,0.0,89,0.00,,,0.00,weatherlink.com 1.10,2013-03-04 06:40:00,
2013-03-04 00:55:00,39.2,37.0,30.14,WSW,257,0.0,0.0,90,0.00,,,0.00,weatherlink.com 1.10,2013-03-04 06:55:00,
2013-03-04 01:10:00,39.1,37.0,30.14,WSW,257,0.0,0.0,90,0.00,,,0.00,weatherlink.com 1.10,2013-03-04 07:10:00,
2013-03-04 01:25:00,39.2,37.0,30.14,WSW,257,0.0,0.0,91,0.00,,,0.00,weatherlink.com 1.10,2013-03-04 07:25:00,
2013-03-04 01:40:00,39.5,37.0,30.14,WSW,257,0.0,0.0,92,0.00,,,0.00,weatherlink.com 1.10,2013-03-04 07:40:00,
2013-03-04 01:55:00,39.5,37.0,30.14,WSW,257,0.0,0.0,92,0.00,,,0.00,weatherlink.com 1.10,2013-03-04 07:55:00,
2013-03-04 02:10:00,39.3,37.0,30.14,WSW,257,0.0,0.0,92,0.00,,,0.00,weatherlink.com 1.10,2013-03-04 08:10:00,
2013-03-04 02:25:00,39.1,37.0,30.13,WSW,257,0.0,0.0,92,0.00,,,0.00,weatherlink.com 1.10,2013-03-04 08:25:00,
2013-03-04 02:40:00,38.8,37.0,30.13,WSW,257,0.0,0.0,92,0.00,,,0.00,weatherlink.com 1.10,2013-03-04 08:40:00,
2013-03-04 02:55:00,38.8,37.0,30.13,WSW,257,0.0,0.0,93,0.00,,,0.00,weatherlink.com 1.10,2013-03-04 08:55:00,
2013-03-04 03:10:00,38.6,37.0,30.13,WSW,257,0.0,0.0,92,0.00,,,0.00,weatherlink.com 1.10,2013-03-04 09:10:00,
2013-03-04 03:25:00,38.5,37.0,30.13,WSW,257,0.0,0.0,93,0.00,,,0.00,weatherlink.com 1.10,2013-03-04 09:25:00,
2013-03-04 03:40:00,38.6,37.0,30.13,WSW,257,0.0,0.0,93,0.00,,,0.00,weatherlink.com 1.10,2013-03-04 09:40:00,
2013-03-04 03:55:00,38.4,37.0,30.13,WSW,257,0.0,0.0,93,0.00,,,0.00,weatherlink.com 1.10,2013-03-04 09:55:00,
2013-03-04 04:10:00,38.4,37.0,30.13,WSW,257,0.0,0.0,93,0.00,,,0.00,weatherlink.com 1.10,2013-03-04 10:10:00,
2013-03-04 04:25:00,38.5,37.0,30.14,WSW,257,0.0,0.0,93,0.00,,,0.00,weatherlink.com 1.10,2013-03-04 10:25:00,
2013-03-04 04:40:00,38.5,37.0,30.13,WSW,257,0.0,0.0,93,0.00,,,0.00,weatherlink.com 1.10,2013-03-04 10:40:00,
2013-03-04 04:55:00,38.6,37.0,30.14,WSW,257,0.0,0.0,94,0.00,,,0.00,weatherlink.com 1.10,2013-03-04 10:55:00,
2013-03-04 05:10:00,38.4,37.0,30.14,WSW,257,0.0,0.0,93,0.00,,,0.00,weatherlink.com 1.10,2013-03-04 11:10:00,
2013-03-04 05:25:00,38.2,37.0,30.14,WSW,257,0.0,0.0,94,0.00,,,0.00,weatherlink.com 1.10,2013-03-04 11:25:00,
2013-03-04 05:40:00,38.3,37.0,30.14,WSW,257,0.0,0.0,94,0.00,,,0.00,weatherlink.com 1.10,2013-03-04 11:40:00,
2013-03-04 05:55:00,38.2,37.0,30.14,WSW,257,0.0,0.0,94,0.00,,,0.00,weatherlink.com 1.10,2013-03-04 11:55:00,
2013-03-04 06:10:00,38.0,37.0,30.14,WSW,257,0.0,0.0,94,0.00,,,0.00,weatherlink.com 1.10,2013-03-04 12:10:00,
2013-03-04 06:25:00,37.9,36.0,30.14,WSW,257,0.0,0.0,94,0.00,,,0.00,weatherlink.com 1.10,2013-03-04 12:25:00,
2013-03-04 06:40:00,38.6,37.0,30.15,WSW,257,0.0,0.0,94,0.00,,,0.00,weatherlink.com 1.10,2013-03-04 12:40:00,
2013-03-04 06:55:00,40.4,39.0,30.16,WSW,257,0.0,0.0,95,0.00,,,0.00,weatherlink.com 1.10,2013-03-04 12:55:00,
2013-03-04 07:10:00,42.7,42.0,30.16,WSW,257,0.0,0.0,96,0.00,,,0.00,weatherlink.com 1.10,2013-03-04 13:10:00,
2013-03-04 07:25:00,45.8,45.0,30.16,WSW,258,0.0,0.0,96,0.00,,,0.00,weatherlink.com 1.10,2013-03-04 13:25:00,
2013-03-04 07:41:00,48.2,46.0,30.17,ESE,116,0.0,3.0,91,0.00,,,0.00,weatherlink.com 1.10,2013-03-04 13:41:00,
2013-03-04 07:56:00,50.8,44.0,30.17,ESE,113,2.0,6.0,78,0.00,,,0.00,weatherlink.com 1.10,2013-03-04 13:56:00,
2013-03-04 08:11:00,52.7,43.0,30.18,East,98,1.0,7.0,69,0.00,,,0.00,weatherlink.com 1.10,2013-03-04 14:11:00,
2013-03-04 08:26:00,53.7,44.0,30.19,ESE,113,5.0,8.0,69,0.00,,,0.00,weatherlink.com 1.10,2013-03-04 14:26:00,
2013-03-04 08:41:00,54.6,44.0,30.18,East,92,7.0,7.0,67,0.00,,,0.00,weatherlink.com 1.10,2013-03-04 14:41:00,
2013-03-04 08:56:00,55.5,44.0,30.19,East,93,3.0,7.0,66,0.00,,,0.00,weatherlink.com 1.10,2013-03-04 14:56:00,
2013-03-04 09:11:00,56.5,46.0,30.19,SE,128,6.0,9.0,67,0.00,,,0.00,weatherlink.com 1.10,2013-03-04 15:11:00,
2013-03-04 09:26:00,57.4,45.0,30.18,ESE,111,3.0,11.0,64,0.00,,,0.00,weatherlink.com 1.10,2013-03-04 15:26:00,
2013-03-04 09:41:00,58.0,45.0,30.18,ESE,111,3.0,10.0,63,0.00,,,0.00,weatherlink.com 1.10,2013-03-04 15:41:00,
2013-03-04 09:56:00,58.7,45.0,30.18,SSE,153,5.0,9.0,60,0.00,,,0.00,weatherlink.com 1.10,2013-03-04 15:56:00,
2013-03-04 10:12:00,59.0,45.0,30.18,SE,130,5.0,11.0,60,0.00,,,0.00,weatherlink.com 1.10,2013-03-04 16:12:00,
2013-03-04 10:27:00,59.4,45.0,30.17,South,175,4.0,11.0,59,0.00,,,0.00,weatherlink.com 1.10,2013-03-04 16:27:00,
2013-03-04 10:42:00,59.5,45.0,30.18,SE,130,9.0,11.0,59,0.00,,,0.00,weatherlink.com 1.10,2013-03-04 16:42:00,
2013-03-04 10:57:00,59.8,46.0,30.17,SSE,155,7.0,10.0,60,0.00,,,0.00,weatherlink.com 1.10,2013-03-04 16:57:00,
2013-03-04 11:12:00,60.0,46.0,30.17,SSE,149,6.0,11.0,61,0.00,,,0.00,weatherlink.com 1.10,2013-03-04 17:12:00,
2013-03-04 11:27:00,60.1,46.0,30.16,SE,133,7.0,13.0,61,0.00,,,0.00,weatherlink.com 1.10,2013-03-04 17:27:00,
2013-03-04 11:42:00,60.7,47.0,30.16,SSE,161,5.0,10.0,60,0.00,,,0.00,weatherlink.com 1.10,2013-03-04 17:42:00,
2013-03-04 11:57:00,61.0,47.0,30.15,SSW,197,6.0,12.0,61,0.00,,,0.00,weatherlink.com 1.10,2013-03-04 17:57:00,
2013-03-04 12:12:00,60.9,47.0,30.15,SE,131,8.0,11.0,61,0.00,,,0.00,weatherlink.com 1.10,2013-03-04 18:12:00,
2013-03-04 12:27:00,61.5,48.0,30.14,SSE,149,4.0,9.0,61,0.00,,,0.00,weatherlink.com 1.10,2013-03-04 18:27:00,
2013-03-04 12:42:00,61.7,48.0,30.13,SE,129,6.0,12.0,62,0.00,,,0.00,weatherlink.com 1.10,2013-03-04 18:42:00,
2013-03-04 12:57:00,61.8,49.0,30.12,South,182,7.0,15.0,63,0.00,,,0.00,weatherlink.com 1.10,2013-03-04 18:57:00,
2013-03-04 13:12:00,62.5,50.0,30.11,SSE,166,2.0,8.0,64,0.00,,,0.00,weatherlink.com 1.10,2013-03-04 19:12:00,
2013-03-04 13:27:00,62.6,50.0,30.10,SSE,165,4.0,9.0,63,0.00,,,0.00,weatherlink.com 1.10,2013-03-04 19:27:00,
2013-03-04 13:42:00,62.7,50.0,30.10,SSW,198,2.0,10.0,63,0.00,,,0.00,weatherlink.com 1.10,2013-03-04 19:42:00,
2013-03-04 13:57:00,62.3,50.0,30.09,South,170,4.0,8.0,65,0.00,,,0.00,weatherlink.com 1.10,2013-03-04 19:57:00,
2013-03-04 14:12:00,61.8,50.0,30.09,SE,146,4.0,9.0,66,0.00,,,0.00,weatherlink.com 1.10,2013-03-04 20:12:00,
2013-03-04 14:27:00,61.9,51.0,30.09,SE,146,4.0,9.0,67,0.00,,,0.00,weatherlink.com 1.10,2013-03-04 20:27:00,
2013-03-04 14:42:00,62.5,51.0,30.09,SSE,149,2.0,7.0,67,0.00,,,0.00,weatherlink.com 1.10,2013-03-04 20:42:00,
2013-03-04 14:57:00,63.3,52.0,30.09,SSE,162,1.0,10.0,67,0.00,,,0.00,weatherlink.com 1.10,2013-03-04 20:57:00,
2013-03-04 15:12:00,62.7,52.0,30.09,SSE,157,7.0,7.0,68,0.00,,,0.00,weatherlink.com 1.10,2013-03-04 21:12:00,
2013-03-04 15:27:00,62.6,52.0,30.08,SE,137,7.0,8.0,69,0.00,,,0.00,weatherlink.com 1.10,2013-03-04 21:27:00,
2013-03-04 15:42:00,62.3,52.0,30.07,ESE,119,10.0,14.0,70,0.00,,,0.00,weatherlink.com 1.10,2013-03-04 21:42:00,
2013-03-04 15:57:00,62.0,53.0,30.07,ESE,102,4.0,10.0,72,0.00,,,0.00,weatherlink.com 1.10,2013-03-04 21:57:00,
2013-03-04 16:12:00,62.5,53.0,30.06,SE,131,5.0,11.0,72,0.00,,,0.00,weatherlink.com 1.10,2013-03-04 22:12:00,
2013-03-04 16:27:00,61.8,53.0,30.06,SE,130,5.0,12.0,73,0.00,,,0.00,weatherlink.com 1.10,2013-03-04 22:27:00,
2013-03-04 16:42:00,62.0,53.0,30.06,SSE,161,5.0,11.0,73,0.00,,,0.00,weatherlink.com 1.10,2013-03-04 22:42:00,
2013-03-04 16:57:00,61.9,54.0,30.06,SSE,153,5.0,11.0,74,0.00,,,0.00,weatherlink.com 1.10,2013-03-04 22:57:00,
2013-03-04 17:12:00,62.0,54.0,30.05,ESE,102,7.0,12.0,74,0.00,,,0.00,weatherlink.com 1.10,2013-03-04 23:12:00,
2013-03-04 17:27:00,61.9,54.0,30.06,SE,146,3.0,11.0,75,0.00,,,0.00,weatherlink.com 1.10,2013-03-04 23:27:00,
2013-03-04 17:42:00,61.9,54.0,30.06,ESE,119,5.0,9.0,75,0.00,,,0.00,weatherlink.com 1.10,2013-03-04 23:42:00,
2013-03-04 17:57:00,61.9,54.0,30.06,South,172,2.0,10.0,76,0.00,,,0.00,weatherlink.com 1.10,2013-03-04 23:57:00,
2013-03-04 18:12:00,62.1,54.0,30.06,SE,126,4.0,9.0,76,0.00,,,0.00,weatherlink.com 1.10,2013-03-05 00:12:00,
2013-03-04 18:27:00,62.2,55.0,30.06,South,173,3.0,8.0,78,0.00,,,0.00,weatherlink.com 1.10,2013-03-05 00:27:00,
2013-03-04 18:42:00,62.3,56.0,30.05,SSE,157,2.0,7.0,79,0.00,,,0.00,weatherlink.com 1.10,2013-03-05 00:42:00,
2013-03-04 18:57:00,62.2,56.0,30.05,SSE,157,4.0,7.0,79,0.00,,,0.00,weatherlink.com 1.10,2013-03-05 00:57:00,
2013-03-04 19:12:00,62.2,56.0,30.05,SE,134,4.0,10.0,80,0.00,,,0.00,weatherlink.com 1.10,2013-03-05 01:12:00,
2013-03-04 19:27:00,62.3,56.0,30.04,SSE,154,2.0,8.0,81,0.00,,,0.00,weatherlink.com 1.10,2013-03-05 01:27:00,
2013-03-04 19:42:00,62.5,57.0,30.04,SSE,157,4.0,11.0,82,0.00,,,0.00,weatherlink.com 1.10,2013-03-05 01:42:00,
2013-03-04 19:57:00,62.7,57.0,30.03,SE,141,3.0,10.0,82,0.00,,,0.00,weatherlink.com 1.10,2013-03-05 01:57:00,
2013-03-04 20:12:00,62.6,57.0,30.03,SSE,161,1.0,11.0,83,0.00,,,0.00,weatherlink.com 1.10,2013-03-05 02:12:00,
2013-03-04 20:27:00,62.6,57.0,30.03,SE,139,6.0,10.0,83,0.00,,,0.00,weatherlink.com 1.10,2013-03-05 02:27:00,
2013-03-04 20:42:00,62.6,58.0,30.02,SE,128,4.0,10.0,84,0.00,,,0.00,weatherlink.com 1.10,2013-03-05 02:42:00,
2013-03-04 20:57:00,62.4,58.0,30.02,SW,227,3.0,8.0,84,0.00,,,0.00,weatherlink.com 1.10,2013-03-05 02:57:00,
2013-03-04 21:12:00,62.1,58.0,30.02,South,191,0.0,8.0,85,0.00,,,0.00,weatherlink.com 1.10,2013-03-05 03:12:00,
2013-03-04 21:27:00,61.8,57.0,30.03,South,171,3.0,4.0,85,0.00,,,0.00,weatherlink.com 1.10,2013-03-05 03:27:00,
2013-03-04 21:42:00,61.7,57.0,30.03,South,190,1.0,5.0,84,0.00,,,0.00,weatherlink.com 1.10,2013-03-05 03:42:00,
2013-03-04 21:58:00,61.5,57.0,30.03,SSW,192,2.0,3.0,85,0.00,,,0.00,weatherlink.com 1.10,2013-03-05 03:58:00,
2013-03-04 22:13:00,61.3,57.0,30.02,SSW,196,0.0,4.0,86,0.00,,,0.00,weatherlink.com 1.10,2013-03-05 04:13:00,
2013-03-04 22:28:00,61.6,57.0,30.02,South,179,3.0,4.0,85,0.00,,,0.00,weatherlink.com 1.10,2013-03-05 04:28:00,
2013-03-04 22:43:00,61.7,57.0,30.02,SSW,192,1.0,6.0,83,0.00,,,0.00,weatherlink.com 1.10,2013-03-05 04:43:00,
2013-03-04 22:58:00,62.1,57.0,30.02,South,191,1.0,6.0,84,0.00,,,0.00,weatherlink.com 1.10,2013-03-05 04:58:00,
2013-03-04 23:13:00,62.2,57.0,30.01,SSW,213,1.0,5.0,84,0.00,,,0.00,weatherlink.com 1.10,2013-03-05 05:13:00,
2013-03-04 23:28:00,62.2,57.0,30.00,SSW,200,3.0,6.0,84,0.00,,,0.00,weatherlink.com 1.10,2013-03-05 05:28:00,
2013-03-04 23:43:00,62.3,57.0,30.01,SSW,212,3.0,6.0,83,0.00,,,0.00,weatherlink.com 1.10,2013-03-05 05:43:00,
2013-03-04 23:58:00,62.7,57.0,30.01,South,186,1.0,10.0,82,0.00,,,0.00,weatherlink.com 1.10,2013-03-05 05:58:00,